This demonstration page uses our WeatherBlox Daily Observations layout. Learn more.

Left ArrowRight Arrow

Hourly Observations for May 24, 2015

Temp ( °F °C ) Dew Point ( °F °C ) Humidity (%) Winds ( mph kmh ) Pressure ( in mb ) Visibility ( mi km ) Precip ( " mm )
12:51 am 00:51 Clear 58 14.4 29 -1.7 33 33 NW 8 13 29.85 1011 10 16 0.00 0.00
1:51 am 01:51 Clear 57 13.9 30 -1.1 36 36 NNW 8 13 29.84 1011 10 16 0.00 0.00
2:51 am 02:51 Clear 56 13.3 30 -1.1 37 37 S 6 9 29.85 1011 10 16 0.00 0.00
3:51 am 03:51 Clear 51 10.6 27 -2.8 39 39 ESE 3 6 29.85 1011 10 16 0.00 0.00
4:51 am 04:51 Clear 50 10 27 -2.8 41 41 ESE 5 7 29.84 1010 10 16 0.00 0.00
5:51 am 05:51 Sunny 52 11.1 28 -2.2 40 40 ESE 6 9 29.85 1011 10 16 0.00 0.00
6:51 am 06:51 Sunny 56 13.3 29 -1.7 36 36 SE 3 6 29.86 1011 10 16 0.00 0.00
7:51 am 07:51 Sunny 65 18.3 32 0 29 29 E 7 11 29.86 1011 10 16 0.00 0.00
8:51 am 08:51 Sunny 70 21.1 32 0 25 25 Calm 29.85 1011 10 16 0.00 0.00
9:51 am 09:51 Sunny 72 22.2 33 0.6 24 24 VRB 7 11 29.84 1010 10 16 0.00 0.00
10:51 am 10:51 Sunny 74 23.3 31 -0.6 20 20 VRB 3 6 29.83 1010 10 16 0.00 0.00
11:51 am 11:51 Sunny 77 25 32 0 19 19 VRB 7 11 29.81 1009 10 16 0.00 0.00
12:51 pm 12:51 Sunny 78 25.6 31 -0.6 18 18 undefined N/A 29.78 1008 10 16 0.00 0.00
1:51 pm 13:51 Sunny 79 26.1 31 -0.6 17 17 VRB 6 9 29.75 1008 10 16 0.00 0.00
2:51 pm 14:51 Mostly Cloudy 80 26.7 31 -0.6 17 17 VRB 7 11 29.72 1007 10 16 0.00 0.00
3:51 pm 15:51 Sunny 79 26.1 30 -1.1 17 17 VRB 7 11 29.71 1006 10 16 0.00 0.00
4:51 pm 16:51 Sunny 80 26.7 29 -1.7 15 15 NNW 14 22 29.70 1006 10 16 0.00 0.00
5:51 pm 17:51 Mostly Sunny 80 26.7 29 -1.7 15 15 WNW 20 31 29.69 1005 10 16 0.00 0.00
6:51 pm 18:51 Mostly Sunny 76 24.4 31 -0.6 19 19 NW 23 37 29.72 1006 10 16 0.00 0.00
7:51 pm 19:51 Partly Cloudy 73 22.8 31 -0.6 21 21 NW 16 26 29.75 1007 10 16 0.00 0.00
8:51 pm 20:51 Mostly Cloudy 71 21.7 32 0 24 24 SW 7 11 29.78 1009 10 16 0.00 0.00
9:51 pm 21:51 Mostly Clear 68 20 34 1.1 28 28 Calm 29.80 1009 10 16 0.00 0.00
10:51 pm 22:51 Clear 64 17.8 34 1.1 33 33 WNW 3 6 29.81 1009 10 16 0.00 0.00
11:51 pm 23:51 Clear 60 15.6 29 -1.7 31 31 N 10 17 29.79 1009 10 16 0.00 0.00

Powered by AerisWeather